Regional Weather Roundup
Issued by NWS

Home | Current Version | Previous Version | Text Only | Print | Product List | Glossary Off
Versions: 1 2 3 4 5 6 7 8 9 10 11 12 13 14 15 16 17 18 19 20 21 22 23 24 25 26 27 28 29 30 31 32 33 34 35 36 37 38 39 40 41 42 43 44 45 46 47 48 49 50

957
ASUS45 KTFX 202310
RWRMT
MONTANA REGIONAL WEATHER ROUNDUP
NATIONAL WEATHER SERVICE GREAT FALLS MT
400 PM MST MON FEB 20 2017

NOTE: "FAIR" INDICATES FEW OR NO CLOUDS BELOW 12000 FEET WITH NO
SIGNIFICANT WEATHER AND/OR OBSTRUCTIONS TO VISIBILITY.

MTZ001>007-043-210000-
WEST OF THE DIVIDE

CITY           SKY/WX    TMP DP  RH WIND       PRES   REMARKS
KALISPELL      LGT RAIN  36  33  89 SW7       29.58R WCI  30
MISSOULA       LGT RAIN  34  34 100 SW6       29.63F WCI  29
BUTTE          CLOUDY    43  30  60 S12       29.65R
MULLAN PASS    HVY SNOW  31  31 100 VRB6      29.52S VSB<1/4 WCI  25
ANACONDA         N/A     43  34  70 S20G25    29.64R
DEER LODGE       N/A     46  36  66 S13G21    29.63S
EUREKA           N/A     37  34  87 CALM      29.55S
HAMILTON         N/A     48  36  61 S12       29.60S
LIBBY            N/A     36  34  93 W3        29.54S
THOMPSON FALLS   N/A     36  33  88 E6        29.66R WCI  31
$$

MTZ008-052>055-210000-
SOUTHWEST MONTANA

CITY           SKY/WX    TMP DP  RH WIND       PRES   REMARKS
BOZEMAN        CLOUDY    52  36  54 SW29      29.62F
DILLON         CLOUDY    46  29  51 S26G33    29.66R
W YELLOWSTONE  LGT SNOW  32  32 100 SW16G28   29.81F VSB 1   WCI  21
ENNIS          MOSUNNY   45  30  57 S38G49    29.73S
THREE FORKS      N/A     52  52 100 S23       29.66R
TWIN BRIDGES     N/A     48  28  46 S14       29.71R
$$

MTZ009-010-012-014-046-048-049-054-210000-
EAST SLOPES AND CENTRAL MONTANA

CITY           SKY/WX    TMP DP  RH WIND       PRES   REMARKS
CUT BANK       CLOUDY    46  28  49 SW12      29.51S
GREAT FALLS    CLOUDY    49  33  54 SW29G36   29.55R
MALMSTROM AFB  PTSUNNY   49  34  55 SW18      29.56R
HELENA         PTSUNNY   50  34  54 SW18G38   29.59R
AUGUSTA        PTSUNNY   40  36  84 SW10      29.56R
BOWMANS CRNR   LGT RAIN  41  35  81 SW20      29.57R
CHOTEAU          N/A     45  37  76 SW10      29.57R
POWER          DRIZZLE   43  36  75 W17G26    29.56R
RAYNESFORD     DRIZZLE   49  32  52 SW20G39   29.55S
ULM            PTSUNNY   46  36  68 MISG      29.55R
$$

MTZ011-013-016-021-045-047-050-051-210000-
NORTH CENTRAL MONTANA

CITY           SKY/WX    TMP DP  RH WIND       PRES   REMARKS
HAVRE          CLOUDY    48  27  44 NE9       29.54F
LEWISTOWN      CLOUDY    47  32  56 SW23G29   29.59F
N BAR RANCH      N/A     48  28  46 SW12G18   29.64F
CHINOOK          N/A     52  27  37 E6        29.55F
DENTON         LGT RAIN  47  36  67 S14       29.54F
FORT BENTON      N/A     52  34  50 N8        29.56F
GEYSER         PTSUNNY   48  30  49 W17G24    29.56S
GRASS RANGE    PTSUNNY   50  30  46 SW9       29.57S
JUDITH GAP     PTSUNNY   42  34  72 W14       29.62S
ROY            DRIZZLE   47  36  63 MISG      29.59R
STANFORD         N/A     48  32  54 SW26G41   29.57F
WINIFRED       LGT RAIN  43  39  86 S6        29.58R
$$

MTZ017>020-022>027-061-062-210000-
NORTHEAST MONTANA

CITY           SKY/WX    TMP DP  RH WIND       PRES   REMARKS
GLASGOW        SUNNY     52  27  38 SE7       29.62F
JORDAN           N/A     56  27  32 S14       29.62F
SIDNEY         SUNNY     56  22  26 W12       29.66F
WOLF POINT     SUNNY     48  29  47 SE3       29.66S
PLENTYWOOD       N/A     48  27  43 W9        29.66F
POPLAR           N/A     46  28  49 CALM      29.67S
$$

MTZ028>42-056>058-210000-
SOUTHCENTRAL AND SOUTHEAST MONTANA

CITY           SKY/WX    TMP DP  RH WIND       PRES   REMARKS
BAKER          SUNNY     54  24  31 SW8       29.72F
BILLINGS       PTSUNNY   53  28  38 SW12G22   29.65R
LIVINGSTON     CLOUDY    51  28  41 SW40G53   29.60F
MILES CITY     SUNNY     59  25  27 S8        29.67F
BIG TIMBER     CLOUDY    46  27  46 VRB5      29.65F
FORSYTH          N/A     57  27  30 S10       29.65F
HARLOWTON      PTSUNNY   47  33  58 NW6       29.63S
LAUREL           N/A     53  26  35 S13       29.68S
$$

REGIONAL REPORTS...DAKOTAS

CITY           SKY/WX    TMP DP  RH WIND       PRES   REMARKS
WILLISTON      SUNNY     46  29  51 NW7       29.68F
MINOT          SUNNY     47  36  65 SW13      29.67S
DICKINSON      SUNNY     52  22  30 W10       29.69F
BEACH            N/A    N/A N/A N/A MISG        N/A
CROSBY           N/A     43  36  75 SW9       29.69S
TIOGA            N/A     41  39  93 W7        29.70F
WATFORD CITY     N/A     46  28  49 CALM      29.69F
BISMARCK       SUNNY     52  36  54 W10       29.75R
GRAND FORKS    CLOUDY    36  31  82 W7        29.65R WCI  30
FARGO          CLOUDY    39  37  92 W14       29.68R WCI  31
BUFFALO SD       N/A     58  21  24 SW15      29.68F
RAPID CITY     SUNNY     62  19  19 S12       29.80F
$$

REGIONAL REPORTS...WYOMING/IDAHO/WASHINGTON

CITY           SKY/WX    TMP DP  RH WIND       PRES   REMARKS
GILLETTE       SUNNY     57  26  30 SW18G28   29.75F
SHERIDAN       MOSUNNY   57  27  31 VRB6      29.69F
BUFFALO WY     CLOUDY    58  20  22 W16G26    29.75R
CODY           CLOUDY    47  31  53 SW13      29.79R
YELLOWSTONE LA   N/A     32  30  92 W9G18     29.84F WCI  24
IDAHO FALLS    CLOUDY    42  36  79 S23G30    29.88F
SALMON         CLOUDY    39  36  87 N8        29.70R
BOISE          CLOUDY    55  39  54 W7        29.79R
SPOKANE        LGT RAIN  43  40  89 SW15G23   29.48S FOG
$$

REGIONAL REPORTS...ALBERTA

CITY           SKY/WX    TMP DP  RH WIND       PRES   REMARKS
EDMONTON       CLOUDY    32  27  80 NE6       29.59S WCI  26
CALGARY        PTSUNNY   32  27  80 E6        29.50F WCI  26
LETHBRIDGE     PTSUNNY   46  28  49 S10G20    29.50S
MEDICINE HAT   PTSUNNY   48  25  40 SW7       29.54R
WATERTON GATE    N/A     37  28  70 SW12G21     N/A  WCI  30
CARDSTON         N/A     45  30  57 S8          N/A
MILK RIVER       N/A     45  32  61 S7          N/A
$$

REGIONAL REPORTS...SASKATCHEWAN

CITY           SKY/WX    TMP DP  RH WIND       PRES   REMARKS
SWIFT CURRENT  MOSUNNY   43  28  56 N5        29.57S
REGINA         MOSUNNY   41  34  75 NW5       29.63F
SASKATOON      CLOUDY    36  30  80 CALM      29.63S
CYPRESS HILLS    N/A     39  19  45 S7          N/A
VAL MARIE        N/A     48  21  34 SW9         N/A
ROCKGLEN         N/A     45  25  45 SW8         N/A
ASSINIBOIA       N/A     34  28  80 N6          N/A  WCI  29
$$




USA.gov is the U.S. government's official web portal to all federal, state and local government web resources and services.